Location: Lane
(33.5226°N, 79.8788°W)
Time: 12:24:26
(UTC+00:00)

Altair - Visible Passes

Search period start: 05 October 2022 00:00
Search period end: 15 October 2022 00:00
Orbit: 1501 x 1682 km, 47.2° (Epoch: 05 October)

Date Brightness Start Highest point End Pass type
(mag) Time Alt. Az. Time Alt. Az. Time Alt. Az.
05 Oct 8.4 07:41:17 38° ESE 07:41:17 38° ESE 07:49:14 10° ENE visible
05 Oct 7.6 09:39:21 30° WSW 09:44:47 71° NNW 09:54:48 10° NE visible
06 Oct 8.7 07:17:52 31° E 07:17:52 31° E 07:23:50 10° ENE visible
06 Oct 7.5 09:15:54 44° WSW 09:19:33 76° NW 09:29:33 10° NE visible
07 Oct 9.1 06:54:22 23° E 06:54:22 23° E 06:58:24 10° ENE visible
07 Oct 7.4 08:52:24 62° WSW 08:54:19 81° NW 09:04:18 10° NE visible
07 Oct 8.3 10:51:19 10° W 11:00:21 40° NNW 11:09:41 10° NE visible
08 Oct 9.4 06:30:49 16° E 06:30:49 16° E 06:32:56 10° ENE visible
08 Oct 7.3 08:28:51 85° W 08:29:06 86° NW 08:39:03 10° NE visible
08 Oct 8.2 10:26:53 13° W 10:34:59 42° NNW 10:44:21 10° NE visible
09 Oct 9.7 06:07:12 11° ENE 06:07:12 11° ENE 06:07:24 10° ENE visible
09 Oct 7.6 08:05:14 71° ENE 08:05:14 71° ENE 08:13:48 10° NE visible
09 Oct 8.1 10:03:16 20° WNW 10:09:38 43° NNW 10:19:02 10° NE visible
10 Oct 8.0 07:41:36 52° ENE 07:41:36 52° ENE 07:48:34 10° NE visible
10 Oct 8.1 09:39:37 28° WNW 09:44:17 45° NNW 09:53:44 10° NE visible
11 Oct 8.5 07:17:55 38° ENE 07:17:55 38° ENE 07:23:18 10° NE visible
11 Oct 8.0 09:15:56 37° WNW 09:18:57 46° NNW 09:28:26 10° NE visible
12 Oct 8.9 06:54:12 27° ENE 06:54:12 27° ENE 06:58:02 10° ENE visible
12 Oct 7.8 08:52:14 46° NW 08:53:38 48° NNW 09:03:09 10° NE visible
12 Oct 8.5 10:51:42 10° WNW 11:00:34 37° N 11:09:40 10° ENE visible
13 Oct 9.3 06:30:28 19° ENE 06:30:28 19° ENE 06:32:46 10° ENE visible
13 Oct 7.8 08:28:29 51° NNW 08:28:29 51° NNW 08:37:53 10° NE visible
13 Oct 8.5 10:26:31 10° WNW 10:35:10 36° N 10:44:14 10° ENE visible
14 Oct 9.6 06:06:43 13° ENE 06:06:43 13° ENE 06:07:30 10° ENE visible
14 Oct 8.0 08:04:44 49° N 08:04:44 49° N 08:12:37 10° NE visible
14 Oct 8.5 10:02:45 16° WNW 10:09:47 36° N 10:18:49 10° ENE visible
